EA7RX-13 Weather Reports


Display with metric or nautical units.
time (UTC)temp
F
wind
direction
speed
MPH
gust
MPH
rain 1hr
in
rain 24hr
in
rain mn
in
humidity
%
barometer
mb
20260906192634 86 0.0 0.0 0.00 0.00 0.00 45 1016.7
20260906191634 87 0.0 0.0 0.00 0.00 0.00 42 1016.5
20260906190634 87 0.0 0.0 0.00 0.00 0.00 42 1016.3
20260906185634 88 0.0 0.0 0.00 0.00 0.00 42 1016.2
20260906184634 89 0.0 0.0 0.00 0.00 0.00 43 1016.0
20260906183634 90 0.0 0.0 0.00 0.00 0.00 42 1015.8
20260906182634 91 0.0 0.0 0.00 0.00 0.00 39 1015.7
20260906181634 93 0.0 0.0 0.00 0.00 0.00 36 1015.5
20260906180634 94 0.0 0.0 0.00 0.00 0.00 33 1015.4
20260906175634 95 0.0 0.0 0.00 0.00 0.00 34 1015.3
20260906174634 97 0.0 0.0 0.00 0.00 0.00 33 1015.1
20260906173634 100 0.0 0.0 0.00 0.00 0.00 30 1014.9
20260906172634 101 0.0 0.0 0.00 0.00 0.00 26 1014.6
20260906171634 102 0.0 0.0 0.00 0.00 0.00 25 1014.6
20260906170634 102 0.0 0.0 0.00 0.00 0.00 25 1014.5
20260906165634 102 0.0 0.0 0.00 0.00 0.00 23 1014.5
20260906164634 102 0.0 0.0 0.00 0.00 0.00 28 1014.5
20260906163634 103 0.0 0.0 0.00 0.00 0.00 23 1014.5
20260906162634 103 0.0 0.0 0.00 0.00 0.00 23 1014.5
20260906161634 103 0.0 0.0 0.00 0.00 0.00 26 1014.5
20260906160634 103 0.0 0.0 0.00 0.00 0.00 23 1014.5
20260906155634 104 0.0 0.0 0.00 0.00 0.00 24 1014.5
20260906154634 105 0.0 0.0 0.00 0.00 0.00 26 1014.4
20260906153634 106 0.0 0.0 0.00 0.00 0.00 23 1014.3
20260906152634 105 0.0 0.0 0.00 0.00 0.00 22 1014.5
20260906151634 104 0.0 0.0 0.00 0.00 0.00 23 1014.5
20260906150634 105 0.0 0.0 0.00 0.00 0.00 23 1014.6
20260906145634 105 0.0 0.0 0.00 0.00 0.00 22 1014.8
20260906144634 106 0.0 0.0 0.00 0.00 0.00 23 1014.8
20260906143634 106 0.0 0.0 0.00 0.00 0.00 24 1014.8
20260906142634 107 0.0 0.0 0.00 0.00 0.00 23 1014.9
20260906141634 107 0.0 0.0 0.00 0.00 0.00 23 1015.1
20260906140634 106 0.0 0.0 0.00 0.00 0.00 24 1015.3
20260906135634 107 0.0 0.0 0.00 0.00 0.00 23 1015.3
20260906134634 106 0.0 0.0 0.00 0.00 0.00 24 1015.5
20260906133634 104 0.0 0.0 0.00 0.00 0.00 25 1015.8
20260906132634 104 0.0 0.0 0.00 0.00 0.00 26 1016.0
20260906131634 104 0.0 0.0 0.00 0.00 0.00 25 1016.2
20260906130634 105 0.0 0.0 0.00 0.00 0.00 29 1016.2
20260906125634 106 0.0 0.0 0.00 0.00 0.00 24 1016.3
20260906124634 106 0.0 0.0 0.00 0.00 0.00 24 1016.4
20260906123634 105 0.0 0.0 0.00 0.00 0.00 25 1016.5
20260906122634 102 0.0 0.0 0.00 0.00 0.00 26 1016.8
20260906121634 104 0.0 0.0 0.00 0.00 0.00 26 1016.7
20260906120634 102 0.0 0.0 0.00 0.00 0.00 27 1016.9
20260906115634 100 0.0 0.0 0.00 0.00 0.00 27 1017.1
20260906114634 101 0.0 0.0 0.00 0.00 0.00 28 1017.1
20260906113634 100 0.0 0.0 0.00 0.00 0.00 28 1017.3
20260906112634 97 0.0 0.0 0.00 0.00 0.00 31 1017.6
20260906111634 98 0.0 0.0 0.00 0.00 0.00 31 1017.7
20260906110634 95 0.0 0.0 0.00 0.00 0.00 33 1018.0
20260906105634 97 0.0 0.0 0.00 0.00 0.00 32 1018.1
20260906104634 93 0.0 0.0 0.00 0.00 0.00 34 1018.5
20260906103634 93 0.0 0.0 0.00 0.00 0.00 37 1018.6
20260906102634 93 0.0 0.0 0.00 0.00 0.00 37 1018.6
20260906101634 92 0.0 0.0 0.00 0.00 0.00 38 1018.8
20260906100634 91 0.0 0.0 0.00 0.00 0.00 38 1018.9
20260906095634 93 0.0 0.0 0.00 0.00 0.00 36 1018.8
20260906094634 93 0.0 0.0 0.00 0.00 0.00 36 1018.8
20260906093634 93 0.0 0.0 0.00 0.00 0.00 36 1018.9
20260906092634 93 0.0 0.0 0.00 0.00 0.00 36 1018.8
20260906091634 92 0.0 0.0 0.00 0.00 0.00 39 1018.9
20260906090634 90 0.0 0.0 0.00 0.00 0.00 42 1018.9
20260906085634 89 0.0 0.0 0.00 0.00 0.00 42 1019.0
20260906084634 89 0.0 0.0 0.00 0.00 0.00 42 1019.0
20260906083634 88 0.0 0.0 0.00 0.00 0.00 42 1019.0
20260906082634 87 0.0 0.0 0.00 0.00 0.00 43 1019.2
20260906081634 87 0.0 0.0 0.00 0.00 0.00 46 1019.1
20260906080634 85 0.0 0.0 0.00 0.00 0.00 56 1019.3
20260906075634 83 0.0 0.0 0.00 0.00 0.00 60 1019.5
20260906074634 81 0.0 0.0 0.00 0.00 0.00 59 1019.8
20260906073634 80 0.0 0.0 0.00 0.00 0.00 61 1019.9
20260906072634 80 0.0 0.0 0.00 0.00 0.00 55 1020.0
20260906071634 79 0.0 0.0 0.00 0.00 0.00 54 1019.9
20260906070634 79 0.0 0.0 0.00 0.00 0.00 50 1019.8
20260906065634 79 0.0 0.0 0.00 0.00 0.00 53 1019.7
20260906064634 78 0.0 0.0 0.00 0.00 0.00 50 1019.8
20260906063634 77 0.0 0.0 0.00 0.00 0.00 53 1019.7
20260906062634 78 0.0 0.0 0.00 0.00 0.00 50 1019.6
20260906061634 77 0.0 0.0 0.00 0.00 0.00 50 1019.6
20260906060634 77 0.0 0.0 0.00 0.00 0.00 50 1019.4
20260906055634 77 0.0 0.0 0.00 0.00 0.00 50 1019.3
20260906054634 78 0.0 0.0 0.00 0.00 0.00 48 1019.2
20260906053634 77 0.0 0.0 0.00 0.00 0.00 49 1019.1
20260906052634 78 0.0 0.0 0.00 0.00 0.00 49 1019.0
20260906051634 78 0.0 0.0 0.00 0.00 0.00 48 1018.9
20260906050634 79 0.0 0.0 0.00 0.00 0.00 46 1018.9
20260906045634 79 0.0 0.0 0.00 0.00 0.00 47 1018.8
20260906044634 78 0.0 0.0 0.00 0.00 0.00 50 1018.9
20260906043634 78 0.0 0.0 0.00 0.00 0.00 52 1018.9
20260906042633 78 0.0 0.0 0.00 0.00 0.00 50 1018.7
20260906041634 78 0.0 0.0 0.00 0.00 0.00 51 1018.9
20260906040634 79 0.0 0.0 0.00 0.00 0.00 52 1018.7
20260906035633 79 0.0 0.0 0.00 0.00 0.00 51 1018.7
20260906034634 80 0.0 0.0 0.00 0.00 0.00 47 1018.7
20260906033634 80 0.0 0.0 0.00 0.00 0.00 46 1018.6
20260906032633 81 0.0 0.0 0.00 0.00 0.00 46 1018.6
20260906031634 80 0.0 0.0 0.00 0.00 0.00 47 1018.6
20260906030633 82 0.0 0.0 0.00 0.00 0.00 46 1018.3
20260906025633 81 0.0 0.0 0.00 0.00 0.00 45 1018.5
20260906024633 82 0.0 0.0 0.00 0.00 0.00 43 1018.5
20260906023633 82 0.0 0.0 0.00 0.00 0.00 42 1018.5
20260906022633 83 0.0 0.0 0.00 0.00 0.00 41 1018.4
20260906021634 83 0.0 0.0 0.00 0.00 0.00 42 1018.3
20260906020633 84 0.0 0.0 0.00 0.00 0.00 41 1018.1
20260906015633 84 0.0 0.0 0.00 0.00 0.00 42 1018.1
20260906014633 85 0.0 0.0 0.00 0.00 0.00 38 1017.9
20260906013633 86 0.0 0.0 0.00 0.00 0.00 37 1017.9
20260906012633 86 0.0 0.0 0.00 0.00 0.00 37 1017.9
20260906011633 86 0.0 0.0 0.00 0.00 0.00 37 1017.9
20260906010633 86 0.0 0.0 0.00 0.00 0.00 37 1018.0
20260906005633 85 0.0 0.0 0.00 0.00 0.00 38 1018.0
20260906004633 87 0.0 0.0 0.00 0.00 0.00 36 1017.8
20260906003633 87 0.0 0.0 0.00 0.00 0.00 34 1017.9
20260906002633 87 0.0 0.0 0.00 0.00 0.00 35 1017.7
20260906001633 86 0.0 0.0 0.00 0.00 0.00 38 1017.9
20260906000633 87 0.0 0.0 0.00 0.00 0.00 38 1017.9
20260905235633 86 0.0 0.0 0.00 0.00 0.00 40 1018.0
20260905234633 87 0.0 0.0 0.00 0.00 0.00 38 1018.0
20260905233633 86 0.0 0.0 0.00 0.00 0.00 40 1018.0
20260905232633 87 0.0 0.0 0.00 0.00 0.00 40 1018.0
20260905231633 87 0.0 0.0 0.00 0.00 0.00 42 1018.1
20260905230633 85 0.0 0.0 0.00 0.00 0.00 43 1018.1
20260905225633 85 0.0 0.0 0.00 0.00 0.00 43 1018.1
20260905224633 85 0.0 0.0 0.00 0.00 0.00 44 1018.2
20260905223633 85 0.0 0.0 0.00 0.00 0.00 44 1018.2
20260905222633 85 0.0 0.0 0.00 0.00 0.00 45 1018.3
20260905221633 85 0.0 0.0 0.00 0.00 0.00 43 1018.2
20260905220633 85 0.0 0.0 0.00 0.00 0.00 44 1018.1
20260905215633 85 0.0 0.0 0.00 0.00 0.00 45 1018.0
20260905214633 86 0.0 0.0 0.00 0.00 0.00 45 1018.1
20260905213633 85 0.0 0.0 0.00 0.00 0.00 48 1018.1
20260905212633 85 0.0 0.0 0.00 0.00 0.00 48 1018.1
20260905211633 86 0.0 0.0 0.00 0.00 0.00 46 1018.0
20260905210633 86 0.0 0.0 0.00 0.00 0.00 45 1018.1
20260905205633 86 0.0 0.0 0.00 0.00 0.00 46 1018.1
20260905204633 87 0.0 0.0 0.00 0.00 0.00 45 1018.0
20260905203633 87 0.0 0.0 0.00 0.00 0.00 45 1017.9
20260905202633 87 0.0 0.0 0.00 0.00 0.00 46 1017.9
20260905201633 87 0.0 0.0 0.00 0.00 0.00 45 1017.8
20260905200633 87 0.0 0.0 0.00 0.00 0.00 44 1017.7
20260905195633 87 0.0 0.0 0.00 0.00 0.00 45 1017.6
20260905194633 88 0.0 0.0 0.00 0.00 0.00 44 1017.3
20260905193633 87 0.0 0.0 0.00 0.00 0.00 45 1017.3